Regional Weather Roundup
Issued by NWS

Home | Current Version | Previous Version | Text Only | Print | Product List | Glossary On
Versions: 1 2 3 4 5 6 7 8 9 10 11 12 13 14 15 16 17 18 19 20 21 22 23 24 25 26 27 28 29 30 31 32 33 34 35 36 37 38 39 40 41 42 43 44 45 46 47 48 49 50
000
ASUS43 KDTX 032110
RWRMI
MICHIGAN HOURLY REGIONAL WEATHER ROUNDUP
NATIONAL WEATHER SERVICE DETROIT/PONTIAC MI
500 PM EDT THU SEP 03 2015

NOTE: "FAIR" INDICATES FEW OR NO CLOUDS BELOW 12,000 FEET WITH NO
SIGNIFICANT WEATHER AND/OR OBSTRUCTION TO VISIBILITY.

MIZ047>049-052>055-059>063-066>070-074>076-081>083-032200-
SOUTHEAST LOWER MICHIGAN

CITY           SKY/WX    TMP DP  RH WIND       PRES   REMARKS
ADRIAN         PTSUNNY   89  64  43 W12G18    29.90F HX  90
ALMA           HVY RAIN  70  69  95 N5        29.91R
ANN ARBOR      CLOUDY    78  65  63 E10       29.90F
BAD AXE        LGT RAIN  72  67  84 CALM      29.92F
DETROIT CITY   CLOUDY    70  66  87 E3        29.93F THUNDER
DETROIT        CLOUDY    75  67  76 N7        29.91F THUNDER
FLINT          CLOUDY    75  67  76 SE12      29.90F
GROSSE ILE     CLOUDY    73  66  78 CALM      29.89F
HILLSDALE      MOSUNNY   88  66  48 SW13      29.91F HX  90
HOWELL         CLOUDY    80  68  66 E8        29.91F

CITY           SKY/WX    TMP DP  RH WIND       PRES   REMARKS
JACKSON        PTSUNNY   84  69  60 SW8       29.89F
LAMBERTVILLE   PTSUNNY   89  65  44 W7        29.90F HX  91
LANSING        CLOUDY    72  63  73 S17G30    29.90S
LAPEER         NOT AVBL
MASON          CLOUDY    80  71  75 NW5       29.90F
MONROE         CLOUDY    88  67  48 SW9       29.87F HX  91
MT. CLEMENS    LGT RAIN  70  66  88 NE6       29.89F
PONTIAC        CLOUDY    70  67  90 E5        29.92F
PORT HOPE        N/A     72  68  87 NE5       29.92F
PORT HURON     LGT RAIN  68  66  94 CALM      29.93F
TRI CITIES     LGT RAIN  69  66  90 SE5       29.91F FOG
YPSILANTI      CLOUDY    75  68  78 E10       29.92F HAZE
$$
MIZ043>046-050>051-056>058-064>065-071>073-077>080-032200-
SOUTHWEST LOWER MICHIGAN

CITY           SKY/WX    TMP DP  RH WIND       PRES   REMARKS
BATTLE CREEK   PTSUNNY   88  69  53 W17       29.89F HX  92
BENTON HARBOR  SUNNY     87  69  54 SW14      29.88F HX  91
BIG RAPIDS     PTSUNNY   79  70  72 W8        29.89R
COLDWATER      MOSUNNY   88  65  46 SW10G18   29.90F HX  90
HOLLAND        SUNNY     79  70  74 W9        29.91S
GRAND RAPIDS   PTSUNNY   82  72  71 W14       29.89S
KALAMAZOO      LGT RAIN  87  67  51 W14G23    29.90S HX  90
MARSHALL       PTSUNNY   86  69  55 SW13G22   29.89F HX  90
MUSKEGON       CLOUDY    76  67  73 NW10      29.90S
$$
MIZ016>042-032200-
NORTHERN LOWER MICHIGAN

CITY           SKY/WX    TMP DP  RH WIND       PRES   REMARKS
ALPENA         CLOUDY    71  68  90 SE3       29.94F
BEAVER ISLAND  MOSUNNY   73  66  79 E12       29.94F
BELLAIRE       CLOUDY    73  65  75 N9        29.91S
CADILLAC       CLOUDY    74  69  85 CALM      29.90F
CHARLEVOIX     CLOUDY    73  66  78 N8        29.95S
FRANKFORT      CLOUDY    69  69  98 NW3       29.90S FOG
GAYLORD        CLOUDY    69  66  90 VRB7      29.94F
GRAYLING       DRIZZLE   67  65  96 E3        29.93F
HARBOR SPRINGS RAIN      70  67  89 E9        29.93F
HOUGHTON LAKE  CLOUDY    68  66  93 SE6       29.92S
MANISTEE       CLOUDY    70  64  83 W3        29.90S
OSCODA         CLOUDY    71  67  88 CALM      29.92F
PELLSTON       CLOUDY    70  66  87 NE10      29.95S
TRAVERSE CITY  CLOUDY    71  68  90 NE5       29.89F
$$
MIZ007>008-015-032200-
EASTERN UPPER MICHIGAN

CITY           SKY/WX    TMP DP  RH WIND       PRES   REMARKS
KINROSS        CLOUDY    77  64  65 E9        29.96F
MACKINAC ISLAN CLOUDY    69  64  82 E7        29.95F
NEWBERRY       MOSUNNY   81  64  56 NE13      29.96S
S. S. MARIE    PTSUNNY   77  61  57 E5        29.96F
$$
MIZ004>006-011>014-085-032200-
CENTRAL UPPER MICHIGAN

CITY           SKY/WX    TMP DP  RH WIND       PRES   REMARKS
MANISTIQUE     SUNNY     80  65  62 E7        29.95R
ESCANABA       SUNNY     75  64  69 SE6       29.93S
MENOMINEE      SUNNY     73  63  68 E13       29.93S
SAWYER-GWINN   MOSUNNY   75  63  64 N10       30.00R
$$
MIZ001>003-009>011-084-032200-
WESTERN UPPER MICHIGAN

CITY           SKY/WX    TMP DP  RH WIND       PRES   REMARKS
IRON MOUNTAIN  MOSUNNY   78  64  61 NE5       29.96S
HOUGHTON       SUNNY     78  57  48 SE10      30.00S
COPPER HARBOR    N/A     66  59  78 NE3       30.00F
IRONWOOD       SUNNY     73  64  73 N8        29.95S
$$

ABBREVIATIONS USED IN REMARKS
   TC - TEMPERATURE IN CELSIUS
  WCI - WIND CHILL INDEX
   HX - HEAT INDEX
  VSB - VISIBILITY



USA.gov is the U.S. government's official web portal to all federal, state and local government web resources and services.